Leadville, CO

5:05 AM MDT on September 30, 2016 (GMT -0600)
Lake County

Weather History for KLXV - December, 2012

Change the Weather History Date:

Sunday, December 30, 2012

  Actual Average Record
Temperature  
Mean Temperature 10 °F -  
Max Temperature 23 °F 29 °F 40 °F (2011)
Min Temperature -4 °F 4 °F -17 °F (1982)
Degree Days  
Heating Degree Days 55 49  
Month to date heating degree days 1458 1452  
Since 1 July heating degree days 4478 4857  
Cooling Degree Days 0 0  
Month to date cooling degree days 0 0  
Year to date cooling degree days 0 0  
Moisture  
Dew Point -3 °F    
Average Humidity 53    
Maximum Humidity 67    
Minimum Humidity 39    
Precipitation  
Precipitation 0.00 in 0.02 in 0.18 in (2010)
Month to date precipitation 0.90 0.73  
Year to date precipitation 11.20 12.43  
Sea Level Pressure  
Sea Level Pressure 29.94 in    
Wind  
Wind Speed 3 mph (SSE)    
Max Wind Speed 12 mph    
Max Gust Speed 14 mph    
Visibility 10 miles    
Events      
T = Trace of Precipitation, MM = Missing Value Source: NWS Daily Summary

Daily Weather History Graph

Daily Weather History Graph

Search for Another Location

Airport or City:

Trip Planner

Search our weather history database for the weather conditions in past years. The results will help you decide how hot, cold, wet, or windy it might be!

Date:

Astronomy

Dec. 30, 2012 Rise Set
Actual Time 7:24 AM MST 4:51 PM MST
Civil Twilight 6:54 AM MST 5:21 PM MST
Nautical Twilight 6:20 AM MST 5:55 PM MST
Astronomical Twilight 5:48 AM MST 6:27 PM MST
Moon 7:24 PM MST 8:36 AM MST
Length of Visible Light 10h 27m
Length of Day
9h 27m
Waning Gibbous, 95% of the Moon is Illuminated
Dec 30
Waning Gibbous
Jan 4
Last Quarter
Jan 11
New
Jan 18
First Quarter
Jan 26
Full

Hourly Weather History & Observations

Time (MST) Temp. Windchill Dew Point Humidity Pressure Visibility Wind Dir Wind Speed Gust Speed Precip Events Conditions
12:53 AM 7.0 °F - -13.0 °F 40% 29.94 in 10.0 mi Calm Calm - N/A   Clear
1:53 AM 3.9 °F - -11.9 °F 48% 29.97 in 10.0 mi Calm Calm - N/A   Clear
2:53 AM 3.9 °F -5.3 °F -11.9 °F 48% 29.97 in 10.0 mi NNE 4.6 mph - N/A   Clear
3:53 AM 7.0 °F - -13.0 °F 40% 29.97 in 10.0 mi Calm Calm - N/A   Clear
4:53 AM 3.0 °F - -13.0 °F 47% 30.02 in 10.0 mi Calm Calm - N/A   Clear
5:53 AM 3.9 °F - -9.9 °F 53% 30.03 in 10.0 mi Calm Calm - N/A   Clear
6:53 AM -0.9 °F -8.9 °F -11.9 °F 60% 30.05 in 10.0 mi NE 3.5 mph - N/A   Clear
7:53 AM 1.0 °F -8.7 °F -11.0 °F 57% 30.03 in 10.0 mi NNE 4.6 mph - N/A   Clear
8:53 AM 7.0 °F - -9.0 °F 48% 30.00 in 10.0 mi Calm Calm - N/A   Clear
9:53 AM 8.1 °F -0.5 °F -7.1 °F 50% 30.01 in 10.0 mi South 4.6 mph - N/A   Clear
10:53 AM 14.0 °F - -7.1 °F 39% 29.98 in 10.0 mi Calm Calm - N/A   Clear
11:53 AM 18.0 °F - -4.0 °F 38% 29.99 in 10.0 mi Calm Calm - N/A   Clear
12:53 PM 18.0 °F 12.7 °F -0.9 °F 44% 29.90 in 10.0 mi South 3.5 mph - N/A   Clear
1:53 PM 21.0 °F 12.4 °F 3.0 °F 46% 29.88 in 10.0 mi South 6.9 mph - N/A   Clear
2:53 PM 21.0 °F 11.4 °F 7.0 °F 55% 29.88 in 10.0 mi South 8.1 mph - N/A   Clear
3:53 PM 19.9 °F 10.1 °F 9.0 °F 62% 29.86 in 10.0 mi South 8.1 mph - N/A   Overcast
4:53 PM 19.0 °F - 9.0 °F 65% 29.91 in 10.0 mi Calm Calm - N/A   Overcast
5:53 PM 18.0 °F - 6.1 °F 60% 29.89 in 10.0 mi Calm Calm - N/A   Overcast
6:53 PM 17.1 °F - 5.0 °F 59% 29.93 in 10.0 mi Calm Calm - N/A   Overcast
7:53 PM 15.1 °F 7.7 °F 3.9 °F 61% 29.92 in 10.0 mi South 4.6 mph - N/A   Overcast
8:53 PM 14.0 °F - 5.0 °F 67% 29.88 in 10.0 mi Calm Calm - N/A   Overcast
9:53 PM 14.0 °F - 5.0 °F 67% 29.87 in 10.0 mi Calm Calm - N/A   Overcast
10:53 PM 12.0 °F 0.5 °F 1.9 °F 64% 29.84 in 10.0 mi South 8.1 mph - N/A   Overcast
11:53 PM 10.9 °F 0.2 °F 1.0 °F 64% 29.81 in 10.0 mi South 6.9 mph - N/A   Overcast